Location: ???????
(54.9567°N, 38.2836°E)
Time: 20:35:35
(UTC+00:00)

SWAS - Pass Details

Date: 14 April 2024
Orbit: 561 x 572 km, 69.9° (Epoch: 18 May)

Event Time Altitude Azimuth Distance (km) Brightness Sun altitude
Rises 00:29:24 0° 324° (NW) 2,783 8.0 -15.1°
Reaches altitude 10° 00:31:37 10° 324° (NW) 1,884 7.1 -14.9°
Maximum altitude 00:35:51 89° 48° (NE) 580 4.4 -14.5°
Drops below altitude 10° 00:40:04 10° 146° (SE) 1,879 7.0 -14.0°
Sets 00:42:16 0° 146° (SE) 2,775 7.8 -13.8°
